Weather History for Meriden, CT

Change the Weather History Date:

Friday, January 31, 2014

  Actual Average (KHVN) Record (KHVN)
Temperature  
Mean Temperature 28 °F -  
Max Temperature 41 °F 36 °F 59 °F (1988)
Min Temperature 15 °F 22 °F 5 °F (1971)
Degree Days  
Heating Degree Days 37    
Moisture  
Dew Point 15 °F    
Average Humidity 58    
Maximum Humidity 85    
Minimum Humidity 30    
Precipitation  
Precipitation 0.00 in - - ()
Sea Level Pressure  
Sea Level Pressure 30.14 in    
Wind  
Wind Speed 2 mph (WSW)    
Max Wind Speed 10 mph    
Max Gust Speed -    
Visibility 10 miles    
Events      
Averages and records for this station are not official NWS values.
T = Trace of Precipitation, MM = Missing Value Source: NWS Daily Summary

Daily Weather History Graph

Daily Weather History Graph

Search for Another Location

Airport:

Trip Planner

Search our weather history database for the weather conditions in past years. The results will help you decide how hot, cold, wet, or windy it might be!

Date:

Astronomy

Jan. 31, 2014 Rise Set
Actual Time 7:04 AM EST 5:06 PM EST
Civil Twilight 6:34 AM EST 5:35 PM EST
Nautical Twilight 6:01 AM EST 6:08 PM EST
Astronomical Twilight 5:28 AM EST 6:41 PM EST
Moon 7:10 AM EST (1/31) 6:28 PM EST (1/31)
Length of Visible Light 11h 00m
Length of Day
10h 02m
New Moon, 1% of the Moon is Illuminated
Jan 31
New Moon
Feb 6
First Quarter
Feb 14
Full
Feb 22
Last Quarter
Mar 1
New

Hourly Weather History & Observations

Time (EST) Temp. Windchill Dew Point Humidity Pressure Visibility Wind Dir Wind Speed Gust Speed Precip Events Conditions
12:28 AM 15.1 °F - 10.9 °F 84% 30.19 in 8.0 mi Calm Calm - N/A   Mostly Cloudy
12:53 AM 15.1 °F - 10.9 °F 84% 30.18 in 9.0 mi Calm Calm - N/A   Scattered Clouds
1:02 AM 15.1 °F - 10.9 °F 84% 30.17 in 9.0 mi Calm Calm - N/A   Mostly Cloudy
1:53 AM 18.0 °F - 12.9 °F 81% 30.15 in 7.0 mi Calm Calm - N/A   Overcast
2:53 AM 21.0 °F 14.6 °F 17.1 °F 85% 30.12 in 7.0 mi SSE 4.6 mph - N/A   Overcast
3:39 AM 21.9 °F 15.7 °F 18.0 °F 85% 30.13 in 9.0 mi SSE 4.6 mph - N/A   Scattered Clouds
3:53 AM 23.0 °F 17.0 °F 18.0 °F 81% 30.13 in 9.0 mi SSE 4.6 mph - N/A   Clear
4:53 AM 26.1 °F - 12.0 °F 55% 30.12 in 10.0 mi Calm Calm - N/A   Clear
5:53 AM 26.1 °F 21.9 °F 10.0 °F 51% 30.11 in 10.0 mi Variable 3.5 mph - N/A   Clear
6:53 AM 25.0 °F - 10.9 °F 55% 30.10 in 10.0 mi Calm Calm - N/A   Partly Cloudy
7:53 AM 25.0 °F - 10.9 °F 55% 30.13 in 10.0 mi Calm Calm - N/A   Mostly Cloudy
8:53 AM 28.9 °F 25.2 °F 10.0 °F 45% 30.12 in 10.0 mi South 3.5 mph - N/A   Clear
9:53 AM 32.0 °F 27.5 °F 7.0 °F 35% 30.14 in 10.0 mi WSW 4.6 mph - N/A   Scattered Clouds
10:53 AM 35.1 °F 31.0 °F 8.1 °F 33% 30.12 in 10.0 mi West 4.6 mph - N/A   Overcast
11:53 AM 37.9 °F 32.7 °F 9.0 °F 30% 30.10 in 10.0 mi Variable 6.9 mph - N/A   Clear
12:53 PM 41.0 °F 34.7 °F 12.0 °F 31% 30.08 in 10.0 mi WSW 10.4 mph - N/A   Clear
1:53 PM 39.9 °F 35.8 °F 12.9 °F 33% 30.08 in 10.0 mi WSW 5.8 mph - N/A   Clear
2:53 PM 41.0 °F 36.4 °F 15.1 °F 35% 30.09 in 10.0 mi WNW 6.9 mph - N/A   Mostly Cloudy
3:53 PM 41.0 °F 38.0 °F 16.0 °F 36% 30.09 in 10.0 mi WNW 4.6 mph - N/A   Mostly Cloudy
4:53 PM 37.9 °F - 17.1 °F 43% 30.10 in 10.0 mi Calm Calm - N/A   Overcast
5:53 PM 37.0 °F 33.3 °F 17.1 °F 44% 30.13 in 10.0 mi West 4.6 mph - N/A   Overcast
6:53 PM 34.0 °F 29.8 °F 19.9 °F 56% 30.17 in 10.0 mi West 4.6 mph - N/A   Clear
7:53 PM 32.0 °F - 21.0 °F 64% 30.18 in 10.0 mi Calm Calm - N/A   Scattered Clouds
8:53 PM 32.0 °F - 21.9 °F 66% 30.19 in 10.0 mi Calm Calm - N/A   Mostly Cloudy
9:53 PM 30.9 °F - 21.9 °F 69% 30.21 in 10.0 mi Calm Calm - N/A   Scattered Clouds
10:53 PM 30.9 °F - 23.0 °F 72% 30.22 in 10.0 mi Calm Calm - N/A   Overcast
11:53 PM 30.9 °F - 23.0 °F 72% 30.23 in 10.0 mi Calm Calm - N/A   Overcast